This is the latest recevied weather packets stored in our database for station/object KD4WLE. If no packets are shown the sender has not sent any weather packets the latest 10 day(s).
| Time | Temp. | Humidity | Pressure | Rain* | Wind** | Luminosity | Snow |
|---|---|---|---|---|---|---|---|
| 1777567315 | 30.56° C | 60% | 1012.3 hPa | 0 mm | - | 789 W/m² | - |
| 1777567014 | 30.56° C | 60% | 1012.1 hPa | 0 mm | - | 789 W/m² | - |
| 1777566711 | 30° C | 61% | 1011.9 hPa | 0 mm | - | 770 W/m² | - |
| 1777566409 | 30° C | 63% | 1012.1 hPa | 0 mm | - | 762 W/m² | - |
| 1777566106 | 30° C | 65% | 1012.3 hPa | 0 mm | - | 776 W/m² | - |
| 1777565801 | 28.89° C | 66% | 1012.2 hPa | 0 mm | - | 800 W/m² | - |
| 1777565498 | 30° C | 67% | 1012.6 hPa | 0 mm | - | 808 W/m² | - |
| 1777565194 | 29.44° C | 69% | 1012.1 hPa | 0 mm | - | 646 W/m² | - |
| 1777564890 | 28.33° C | 70% | 1012.6 hPa | 0 mm | - | 408 W/m² | - |
| 1777564585 | 28.33° C | 71% | 1012.7 hPa | 0 mm | - | 498 W/m² | - |
| 1777564281 | 28.33° C | 71% | 1012.7 hPa | 0 mm | - | 775 W/m² | - |
| 1777563978 | 28.89° C | 71% | 1012.5 hPa | 0 mm | - | 740 W/m² | - |
| 1777563674 | 28.89° C | 72% | 1012.7 hPa | 0 mm | - | 748 W/m² | - |
| 1777563369 | 28.33° C | 72% | 1012.8 hPa | 0 mm | - | 697 W/m² | - |
| 1777563065 | 27.78° C | 75% | 1012.9 hPa | 0 mm | - | 683 W/m² | - |
| 1777562761 | 27.78° C | 76% | 1013.2 hPa | 0 mm | - | 683 W/m² | - |
| 1777562459 | 27.22° C | 77% | 1013.1 hPa | 0 mm | - | 675 W/m² | - |
| 1777562156 | 27.22° C | 79% | 1012.9 hPa | 0 mm | - | 676 W/m² | - |
| 1777561854 | 27.22° C | 80% | 1013.2 hPa | 0 mm | - | 659 W/m² | - |
| 1777561550 | 26.11° C | 82% | 1013.2 hPa | 0 mm | - | 678 W/m² | - |
| 1777561245 | 25.56° C | 84% | 1013.2 hPa | 0 mm | - | 234 W/m² | - |
| 1777560944 | 25.56° C | 85% | 1013.1 hPa | 0 mm | - | 226 W/m² | - |
| 1777560642 | 25° C | 85% | 1012.9 hPa | 0 mm | - | 226 W/m² | - |
| 1777560339 | 25.56° C | 85% | 1013 hPa | 0 mm | - | 193 W/m² | - |
| 1777560037 | 25.56° C | 86% | 1012.9 hPa | 0 mm | - | 262 W/m² | - |
* Rain latest hour (hover to see other rain measurements)
** Current wind speed in m/s (hover to see current wind gust speed)